Weather History for Douglas, WY

Change the Weather History Date:

Saturday, January 5, 2013

  Actual Average Record
Temperature  
Mean Temperature 18 °F 25 °F  
Max Temperature 34 °F 39 °F 60 °F (2012)
Min Temperature 2 °F 11 °F -13 °F (2009)
Degree Days  
Heating Degree Days 47 40  
Month to date heating degree days 235 202  
Since 1 July heating degree days 2862 3291  
Cooling Degree Days 0 0  
Month to date cooling degree days 0 0  
Year to date cooling degree days 0 0  
Moisture  
Dew Point 5 °F    
Average Humidity 63    
Maximum Humidity 83    
Minimum Humidity 43    
Precipitation  
Precipitation 0.00 in 0.01 in 0.15 in (1969)
Month to date precipitation T 0.06  
Year to date precipitation T 0.06  
Sea Level Pressure  
Sea Level Pressure 30.38 in    
Wind  
Wind Speed 9 mph (NW)    
Max Wind Speed 22 mph    
Max Gust Speed 28 mph    
Visibility 10 miles    
Events      
T = Trace of Precipitation, MM = Missing Value Source: NWS Daily Summary

Daily Weather History Graph

Daily Weather History Graph

Search for Another Location

Airport:

Trip Planner

Search our weather history database for the weather conditions in past years. The results will help you decide how hot, cold, wet, or windy it might be!

Date:

Astronomy

Jan. 05, 2013 Rise Set
Actual Time 7:32 AM MST 4:42 PM MST
Civil Twilight 7:00 AM MST 5:14 PM MST
Nautical Twilight 6:24 AM MST 5:49 PM MST
Astronomical Twilight 5:50 AM MST 6:23 PM MST
Moon 12:36 AM MST (1/5) 11:37 AM MST (1/5)
Length of Visible Light 10h 13m
Length of Day
9h 10m
Last Quarter, 43% of the Moon is Illuminated
Jan 5
Last Quarter
Jan 11
New
Jan 18
First Quarter
Jan 26
Full
Feb 3
Last Quarter

Hourly Weather History & Observations

Time (MST) Temp. Windchill Dew Point Humidity Pressure Visibility Wind Dir Wind Speed Gust Speed Precip Events Conditions
12:53 AM 12.9 °F -0.2 °F 3.0 °F 65% 30.25 in 10.0 mi NNW 10.4 mph - N/A   Clear
1:53 AM 12.0 °F 0.5 °F 1.9 °F 64% 30.25 in 10.0 mi NNW 8.1 mph - N/A   Clear
2:53 AM 10.9 °F -2.6 °F 1.9 °F 67% 30.28 in 10.0 mi NNW 10.4 mph - N/A   Clear
3:53 AM 12.9 °F 1.6 °F 1.9 °F 62% 30.28 in 10.0 mi NNW 8.1 mph - N/A   Clear
4:53 AM 10.9 °F 1.4 °F 1.0 °F 64% 30.32 in 10.0 mi North 5.8 mph - N/A   Clear
5:53 AM 12.9 °F -0.2 °F 1.9 °F 62% 30.34 in 10.0 mi NNW 10.4 mph - N/A   Clear
6:53 AM 10.9 °F -0.8 °F 1.0 °F 64% 30.38 in 10.0 mi North 8.1 mph - N/A   Clear
7:53 AM 9.0 °F -2.2 °F -0.0 °F 67% 30.41 in 10.0 mi North 6.9 mph - N/A   Clear
8:53 AM 14.0 °F 2.9 °F 1.9 °F 59% 30.43 in 10.0 mi NW 8.1 mph - N/A   Clear
9:53 AM 19.0 °F 9.0 °F 6.1 °F 57% 30.43 in 10.0 mi WNW 8.1 mph - N/A   Clear
10:53 AM 27.0 °F 15.6 °F 8.1 °F 45% 30.41 in 10.0 mi WNW 13.8 mph - N/A   Clear
11:53 AM 30.0 °F 17.9 °F 10.9 °F 45% 30.39 in 10.0 mi West 18.4 mph - N/A   Clear
12:53 PM 32.0 °F 19.8 °F 12.0 °F 44% 30.37 in 10.0 mi WNW 20.7 mph - N/A   Clear
1:53 PM 34.0 °F 23.4 °F 14.0 °F 44% 30.36 in 10.0 mi WNW 17.3 mph - N/A   Clear
2:53 PM 34.0 °F 24.6 °F 14.0 °F 44% 30.37 in 10.0 mi NW 13.8 mph - N/A   Clear
3:53 PM 33.1 °F 24.9 °F 14.0 °F 46% 30.37 in 10.0 mi NW 10.4 mph - N/A   Clear
4:53 PM 23.0 °F 17.0 °F 12.0 °F 63% 30.42 in 10.0 mi WSW 4.6 mph - N/A   Clear
5:53 PM 18.0 °F 9.8 °F 9.0 °F 68% 30.43 in 10.0 mi NNW 5.8 mph - N/A   Clear
6:53 PM 16.0 °F 7.4 °F 7.0 °F 68% 30.45 in 10.0 mi NNW 5.8 mph - N/A   Clear
7:53 PM 12.0 °F 1.5 °F 3.9 °F 70% 30.48 in 10.0 mi NNW 6.9 mph - N/A   Clear
8:53 PM 10.0 °F - 3.0 °F 73% 30.47 in 10.0 mi Calm Calm - N/A   Clear
9:53 PM 7.0 °F - 1.0 °F 77% 30.46 in 10.0 mi Calm Calm - N/A   Clear
10:53 PM 5.0 °F - -0.0 °F 80% 30.43 in 10.0 mi Calm Calm - N/A   Clear
11:53 PM 3.9 °F -3.4 °F -0.9 °F 80% 30.40 in 10.0 mi ESE 3.5 mph - N/A   Clear